Location: Newark
(51.2000°N, 58.6167°E)
Time: 09:02:35
(UTC+00:00)

Envisat - Pass Details

Date: 04 October 2020
Orbit: 764 x 766 km, 98.1° (Epoch: 23 October)

Event Time Altitude Azimuth Distance (km) Brightness Sun altitude
Rises 14:11:18 0° 199° (SSW) 3,222 6.5 -6.3°
Reaches altitude 10° 14:13:57 10° 211° (SSW) 2,300 5.9 -6.8°
Maximum altitude 14:18:10 26° 268° (W) 1,477 5.6 -7.4°
Drops below altitude 10° 14:22:25 10° 324° (NW) 2,314 6.1 -8.1°
Sets 14:25:06 0° 337° (NNW) 3,245 6.6 -8.5°
